Year,Month,Day,Hour,Minute,Value (Times are PST for temperature in C)
2008,10,01,00,00,13.20
2008,10,01,00,01,13.20
2008,10,01,00,02,13.20
2008,10,01,00,03,13.20
2008,10,01,00,04,13.10
2008,10,01,00,05,13.10
2008,10,01,00,06,13.10
2008,10,01,00,07,13.10
2008,10,01,00,08,13.10
2008,10,01,00,09,13.10
2008,10,01,00,10,13.10
2008,10,01,00,11,13.00
2008,10,01,00,12,13.00
2008,10,01,00,13,13.00
2008,10,01,00,14,13.00
2008,10,01,00,15,12.90
2008,10,01,00,16,12.90
2008,10,01,00,17,12.90
2008,10,01,00,18,12.90
2008,10,01,00,19,12.90
2008,10,01,00,20,12.90
2008,10,01,00,21,12.80
2008,10,01,00,22,12.80
2008,10,01,00,23,12.80
2008,10,01,00,24,12.80
2008,10,01,00,25,12.80
2008,10,01,00,26,12.80
2008,10,01,00,27,12.80
2008,10,01,00,28,12.80
2008,10,01,00,29,12.70
2008,10,01,00,30,12.70
2008,10,01,00,31,12.70
2008,10,01,00,32,12.70
2008,10,01,00,33,12.70
2008,10,01,00,34,12.70
2008,10,01,00,35,12.70
2008,10,01,00,36,12.70
2008,10,01,00,37,12.60
2008,10,01,00,38,12.60
2008,10,01,00,39,12.60
2008,10,01,00,40,12.60
2008,10,01,00,41,12.60
2008,10,01,00,42,12.50
2008,10,01,00,43,12.50
2008,10,01,00,44,12.50
2008,10,01,00,45,12.50
2008,10,01,00,46,12.50
2008,10,01,00,47,12.50
2008,10,01,00,48,12.50
2008,10,01,00,49,12.40
2008,10,01,00,50,12.40
2008,10,01,00,51,12.40
2008,10,01,00,52,12.40
2008,10,01,00,53,12.40
2008,10,01,00,54,12.40
2008,10,01,00,55,12.40
2008,10,01,00,56,12.30
2008,10,01,00,57,12.30
2008,10,01,00,58,12.30
2008,10,01,00,59,12.30
2008,10,01,01,00,12.30
2008,10,01,01,01,12.30
2008,10,01,01,02,12.30
2008,10,01,01,03,12.30
2008,10,01,01,04,12.30
2008,10,01,01,05,12.30
2008,10,01,01,06,12.30
2008,10,01,01,07,12.20
2008,10,01,01,08,12.20
2008,10,01,01,09,12.20
2008,10,01,01,10,12.20
2008,10,01,01,11,12.20
2008,10,01,01,12,12.20
2008,10,01,01,13,12.20
2008,10,01,01,14,12.20
2008,10,01,01,15,12.20
2008,10,01,01,16,12.20
2008,10,01,01,17,12.20
2008,10,01,01,18,12.20
2008,10,01,01,19,12.20
2008,10,01,01,20,12.20
2008,10,01,01,21,12.20
2008,10,01,01,22,12.20
2008,10,01,01,23,12.10
2008,10,01,01,24,12.10
2008,10,01,01,25,12.10
2008,10,01,01,26,12.10
2008,10,01,01,27,12.10
2008,10,01,01,28,12.10
2008,10,01,01,29,12.10
2008,10,01,01,30,12.10
2008,10,01,01,31,12.00
2008,10,01,01,32,12.00
2008,10,01,01,33,12.00
2008,10,01,01,34,12.00
2008,10,01,01,35,12.00
2008,10,01,01,36,11.90
2008,10,01,01,37,11.90
2008,10,01,01,38,11.90
2008,10,01,01,39,11.90
2008,10,01,01,40,11.90
2008,10,01,01,41,11.90
2008,10,01,01,42,11.90
2008,10,01,01,43,11.90
2008,10,01,01,44,11.90
2008,10,01,01,45,11.90
2008,10,01,01,46,11.90
2008,10,01,01,47,11.80
2008,10,01,01,48,11.80
2008,10,01,01,49,11.80
2008,10,01,01,50,11.80
2008,10,01,01,51,11.80
2008,10,01,01,52,11.80
2008,10,01,01,53,11.80
2008,10,01,01,54,11.80
2008,10,01,01,55,11.80
2008,10,01,01,56,11.80
2008,10,01,01,57,11.80
2008,10,01,01,58,11.80
2008,10,01,01,59,11.80
2008,10,01,02,00,11.70
2008,10,01,02,01,11.70
2008,10,01,02,02,11.70
2008,10,01,02,03,11.70
2008,10,01,02,04,11.70
2008,10,01,02,05,11.70
2008,10,01,02,06,11.70
2008,10,01,02,07,11.70
2008,10,01,02,08,11.60
2008,10,01,02,09,11.60
2008,10,01,02,10,11.60
2008,10,01,02,11,11.60
2008,10,01,02,12,11.60
2008,10,01,02,13,11.60
2008,10,01,02,14,11.60
2008,10,01,02,15,11.60
2008,10,01,02,16,11.60
2008,10,01,02,17,11.50
2008,10,01,02,18,11.50
2008,10,01,02,19,11.50
2008,10,01,02,20,11.50
2008,10,01,02,21,11.50
2008,10,01,02,22,11.40
2008,10,01,02,23,11.40
2008,10,01,02,24,11.40
2008,10,01,02,25,11.40
2008,10,01,02,26,11.40
2008,10,01,02,27,11.40
2008,10,01,02,28,11.40
2008,10,01,02,29,11.40
2008,10,01,02,30,11.30
2008,10,01,02,31,11.30
2008,10,01,02,32,11.30
2008,10,01,02,33,11.30
2008,10,01,02,34,11.30
2008,10,01,02,35,11.30
2008,10,01,02,36,11.30
2008,10,01,02,37,11.30
2008,10,01,02,38,11.30
2008,10,01,02,39,11.30
2008,10,01,02,40,11.20
2008,10,01,02,41,11.20
2008,10,01,02,42,11.20
2008,10,01,02,43,11.20
2008,10,01,02,44,11.20
2008,10,01,02,45,11.20
2008,10,01,02,46,11.20
2008,10,01,02,47,11.20
2008,10,01,02,48,11.10
2008,10,01,02,49,11.10
2008,10,01,02,50,11.10
2008,10,01,02,51,11.10
2008,10,01,02,52,11.10
2008,10,01,02,53,11.10
2008,10,01,02,54,11.10
2008,10,01,02,55,11.10
2008,10,01,02,56,11.00
2008,10,01,02,57,11.00
2008,10,01,02,58,11.00
2008,10,01,02,59,11.00
2008,10,01,03,00,10.90
2008,10,01,03,01,10.90
2008,10,01,03,02,10.90
2008,10,01,03,03,10.90
2008,10,01,03,04,10.90
2008,10,01,03,05,10.90
2008,10,01,03,06,10.80
2008,10,01,03,07,10.80
2008,10,01,03,08,10.80
2008,10,01,03,09,10.80
2008,10,01,03,10,10.80
2008,10,01,03,11,10.80
2008,10,01,03,12,10.80
2008,10,01,03,13,10.80
2008,10,01,03,14,10.80
2008,10,01,03,15,10.80
2008,10,01,03,16,10.80
2008,10,01,03,17,10.80
2008,10,01,03,18,10.80
2008,10,01,03,19,10.70
2008,10,01,03,20,10.70
2008,10,01,03,21,10.70
2008,10,01,03,22,10.70
2008,10,01,03,23,10.70
2008,10,01,03,24,10.70
2008,10,01,03,25,10.70
2008,10,01,03,26,10.70
2008,10,01,03,27,10.70
2008,10,01,03,28,10.70
2008,10,01,03,29,10.70
2008,10,01,03,30,10.70
2008,10,01,03,31,10.60
2008,10,01,03,32,10.60
2008,10,01,03,33,10.60
2008,10,01,03,34,10.60
2008,10,01,03,35,10.60
2008,10,01,03,36,10.60
2008,10,01,03,37,10.60
2008,10,01,03,38,10.60
2008,10,01,03,39,10.60
2008,10,01,03,40,10.50
2008,10,01,03,41,10.50
2008,10,01,03,42,10.50
2008,10,01,03,43,10.50
2008,10,01,03,44,10.50
2008,10,01,03,45,10.50
2008,10,01,03,46,10.40
2008,10,01,03,47,10.40
2008,10,01,03,48,10.40
2008,10,01,03,49,10.40
2008,10,01,03,50,10.40
2008,10,01,03,51,10.40
2008,10,01,03,52,10.40
2008,10,01,03,53,10.40
2008,10,01,03,54,10.30
2008,10,01,03,55,10.30
2008,10,01,03,56,10.30
2008,10,01,03,57,10.30
2008,10,01,03,58,10.30
2008,10,01,03,59,10.30
2008,10,01,04,00,10.30
2008,10,01,04,01,10.30
2008,10,01,04,02,10.30
2008,10,01,04,03,10.20
2008,10,01,04,04,10.20
2008,10,01,04,05,10.20
2008,10,01,04,06,10.20
2008,10,01,04,07,10.20
2008,10,01,04,08,10.20
2008,10,01,04,09,10.20
2008,10,01,04,10,10.20
2008,10,01,04,11,10.20
2008,10,01,04,12,10.20
2008,10,01,04,13,10.20
2008,10,01,04,14,10.20
2008,10,01,04,15,10.10
2008,10,01,04,16,10.10
2008,10,01,04,17,10.10
2008,10,01,04,18,10.10
2008,10,01,04,19,10.10
2008,10,01,04,20,10.10
2008,10,01,04,21,10.10
2008,10,01,04,22,10.10
2008,10,01,04,23,10.10
2008,10,01,04,24,10.10
2008,10,01,04,25,10.10
2008,10,01,04,26,10.10
2008,10,01,04,27,10.10
2008,10,01,04,28,10.10
2008,10,01,04,29,10.10
2008,10,01,04,30,10.00
2008,10,01,04,31,10.00
2008,10,01,04,32,10.00
2008,10,01,04,33,10.00
2008,10,01,04,34,10.00
2008,10,01,04,35,10.00
2008,10,01,04,36,10.00
2008,10,01,04,37,10.00
2008,10,01,04,38,10.00
2008,10,01,04,39,10.00
2008,10,01,04,40,10.00
2008,10,01,04,41,9.90
2008,10,01,04,42,9.90
2008,10,01,04,43,9.90
2008,10,01,04,44,9.90
2008,10,01,04,45,9.90
2008,10,01,04,46,9.90
2008,10,01,04,47,9.90
2008,10,01,04,48,9.90
2008,10,01,04,49,9.90
2008,10,01,04,50,9.90
2008,10,01,04,51,9.90
2008,10,01,04,52,9.90
2008,10,01,04,53,9.90
2008,10,01,04,54,9.90
2008,10,01,04,55,9.90
2008,10,01,04,56,9.90
2008,10,01,04,57,9.80
2008,10,01,04,58,9.80
2008,10,01,04,59,9.80
2008,10,01,05,00,9.80
2008,10,01,05,01,9.80
2008,10,01,05,02,9.80
2008,10,01,05,03,9.80
2008,10,01,05,04,9.80
2008,10,01,05,05,9.80
2008,10,01,05,06,9.80
2008,10,01,05,07,9.80
2008,10,01,05,08,9.80
2008,10,01,05,09,9.80
2008,10,01,05,10,9.80
2008,10,01,05,11,9.80
2008,10,01,05,12,9.80
2008,10,01,05,13,9.80
2008,10,01,05,14,9.70
2008,10,01,05,15,9.70
2008,10,01,05,16,9.70
2008,10,01,05,17,9.70
2008,10,01,05,18,9.70
2008,10,01,05,19,9.70
2008,10,01,05,20,9.70
2008,10,01,05,21,9.70
2008,10,01,05,22,9.70
2008,10,01,05,23,9.70
2008,10,01,05,24,9.70
2008,10,01,05,25,9.70
2008,10,01,05,26,9.70
2008,10,01,05,27,9.70
2008,10,01,05,28,9.70
2008,10,01,05,29,9.60
2008,10,01,05,30,9.60
2008,10,01,05,31,9.60
2008,10,01,05,32,9.60
2008,10,01,05,33,9.60
2008,10,01,05,34,9.60
2008,10,01,05,35,9.60
2008,10,01,05,36,9.60
2008,10,01,05,37,9.60
2008,10,01,05,38,9.60
2008,10,01,05,39,9.60
2008,10,01,05,40,9.60
2008,10,01,05,41,9.60
2008,10,01,05,42,9.60
2008,10,01,05,43,9.60
2008,10,01,05,44,9.60
2008,10,01,05,45,9.60
2008,10,01,05,46,9.60
2008,10,01,05,47,9.60
2008,10,01,05,48,9.60
2008,10,01,05,49,9.50
2008,10,01,05,50,9.50
2008,10,01,05,51,9.50
2008,10,01,05,52,9.50
2008,10,01,05,53,9.50
2008,10,01,05,54,9.50
2008,10,01,05,55,9.50
2008,10,01,05,56,9.40
2008,10,01,05,57,9.40
2008,10,01,05,58,9.40
2008,10,01,05,59,9.40
2008,10,01,06,00,9.40
2008,10,01,06,01,9.40
2008,10,01,06,02,9.40
2008,10,01,06,03,9.40
2008,10,01,06,04,9.40
2008,10,01,06,05,9.40
2008,10,01,06,06,9.40
2008,10,01,06,07,9.40
2008,10,01,06,08,9.40
2008,10,01,06,09,9.40
2008,10,01,06,10,9.40
2008,10,01,06,11,9.40
2008,10,01,06,12,9.40
2008,10,01,06,13,9.30
2008,10,01,06,14,9.30
2008,10,01,06,15,9.30
2008,10,01,06,16,9.30
2008,10,01,06,17,9.30
2008,10,01,06,18,9.30
2008,10,01,06,19,9.30
2008,10,01,06,20,9.30
2008,10,01,06,21,9.30
2008,10,01,06,22,9.30
2008,10,01,06,23,9.30
2008,10,01,06,24,9.30
2008,10,01,06,25,9.30
2008,10,01,06,26,9.30
2008,10,01,06,27,9.30
2008,10,01,06,28,9.30
2008,10,01,06,29,9.30
2008,10,01,06,30,9.30
2008,10,01,06,31,9.30
2008,10,01,06,32,9.30
2008,10,01,06,33,9.30
2008,10,01,06,34,9.30
2008,10,01,06,35,9.30
2008,10,01,06,36,9.30
2008,10,01,06,37,9.30
2008,10,01,06,38,9.30
2008,10,01,06,39,9.30
2008,10,01,06,40,9.30
2008,10,01,06,41,9.30
2008,10,01,06,42,9.30
2008,10,01,06,43,9.30
2008,10,01,06,44,9.30
2008,10,01,06,45,9.30
2008,10,01,06,46,9.30
2008,10,01,06,47,9.30
2008,10,01,06,48,9.30
2008,10,01,06,49,9.30
2008,10,01,06,50,9.30
2008,10,01,06,51,9.30
2008,10,01,06,52,9.30
2008,10,01,06,53,9.30
2008,10,01,06,54,9.30
2008,10,01,06,55,9.30
2008,10,01,06,56,9.30
2008,10,01,06,57,9.30
2008,10,01,06,58,9.30
2008,10,01,06,59,9.30
2008,10,01,07,00,9.30
2008,10,01,07,01,9.30
2008,10,01,07,02,9.30
2008,10,01,07,03,9.30
2008,10,01,07,04,9.30
2008,10,01,07,05,9.30
2008,10,01,07,06,9.30
2008,10,01,07,07,9.20
2008,10,01,07,08,9.20
2008,10,01,07,09,9.20
2008,10,01,07,10,9.20
2008,10,01,07,11,9.20
2008,10,01,07,12,9.20
2008,10,01,07,13,9.20
2008,10,01,07,14,9.20
2008,10,01,07,15,9.20
2008,10,01,07,16,9.20
2008,10,01,07,17,9.20
2008,10,01,07,18,9.20
2008,10,01,07,19,9.20
2008,10,01,07,20,9.20
2008,10,01,07,21,9.20
2008,10,01,07,22,9.20
2008,10,01,07,23,9.20
2008,10,01,07,24,9.20
2008,10,01,07,25,9.20
2008,10,01,07,26,9.20
2008,10,01,07,27,9.20
2008,10,01,07,28,9.20
2008,10,01,07,29,9.20
2008,10,01,07,30,9.20
2008,10,01,07,31,9.20
2008,10,01,07,32,9.20
2008,10,01,07,33,9.20
2008,10,01,07,34,9.20
2008,10,01,07,35,9.20
2008,10,01,07,36,9.20
2008,10,01,07,37,9.10
2008,10,01,07,38,9.10
2008,10,01,07,39,9.10
2008,10,01,07,40,9.10
2008,10,01,07,41,9.10
2008,10,01,07,42,9.10
2008,10,01,07,43,9.10
2008,10,01,07,44,9.10
2008,10,01,07,45,9.10
2008,10,01,07,46,9.10
2008,10,01,07,47,9.20
2008,10,01,07,48,9.20
2008,10,01,07,49,9.20
2008,10,01,07,50,9.20
2008,10,01,07,51,9.20
2008,10,01,07,52,9.20
2008,10,01,07,53,9.20
2008,10,01,07,54,9.20
2008,10,01,07,55,9.20
2008,10,01,07,56,9.20
2008,10,01,07,57,9.20
2008,10,01,07,58,9.20
2008,10,01,07,59,9.20
2008,10,01,08,00,9.20
2008,10,01,08,01,9.20
2008,10,01,08,02,9.20
2008,10,01,08,03,9.20
2008,10,01,08,04,9.20
2008,10,01,08,05,9.20
2008,10,01,08,06,9.20
2008,10,01,08,07,9.20
2008,10,01,08,08,9.20
2008,10,01,08,09,9.30
2008,10,01,08,10,9.30
2008,10,01,08,11,9.30
2008,10,01,08,12,9.30
2008,10,01,08,13,9.30
2008,10,01,08,14,9.30
2008,10,01,08,15,9.30
2008,10,01,08,16,9.30
2008,10,01,08,17,9.30
2008,10,01,08,18,9.30
2008,10,01,08,19,9.30
2008,10,01,08,20,9.30
2008,10,01,08,21,9.30
2008,10,01,08,22,9.30
2008,10,01,08,23,9.40
2008,10,01,08,24,9.40
2008,10,01,08,25,9.40
2008,10,01,08,26,9.40
2008,10,01,08,27,9.40
2008,10,01,08,28,9.40
2008,10,01,08,29,9.40
2008,10,01,08,30,9.50
2008,10,01,08,31,9.50
2008,10,01,08,32,9.50
2008,10,01,08,33,9.50
2008,10,01,08,34,9.50
2008,10,01,08,35,9.60
2008,10,01,08,36,9.60
2008,10,01,08,37,9.60
2008,10,01,08,38,9.60
2008,10,01,08,39,9.60
2008,10,01,08,40,9.60
2008,10,01,08,41,9.60
2008,10,01,08,42,9.60
2008,10,01,08,43,9.60
2008,10,01,08,44,9.70
2008,10,01,08,45,9.70
2008,10,01,08,46,9.70
2008,10,01,08,47,9.70
2008,10,01,08,48,9.70
2008,10,01,08,49,9.70
2008,10,01,08,50,9.70
2008,10,01,08,51,9.70
2008,10,01,08,52,9.70
2008,10,01,08,53,9.80
2008,10,01,08,54,9.80
2008,10,01,08,55,9.80
2008,10,01,08,56,9.80
2008,10,01,08,57,9.80
2008,10,01,08,58,9.80
2008,10,01,08,59,9.80
2008,10,01,09,00,9.80
2008,10,01,09,01,9.90
2008,10,01,09,02,9.90
2008,10,01,09,03,9.90
2008,10,01,09,04,9.90
2008,10,01,09,05,9.90
2008,10,01,09,06,9.90
2008,10,01,09,07,9.90
2008,10,01,09,08,10.00
2008,10,01,09,09,10.00
2008,10,01,09,10,10.10
2008,10,01,09,11,10.10
2008,10,01,09,12,10.10
2008,10,01,09,13,10.10
2008,10,01,09,14,10.10
2008,10,01,09,15,10.10
2008,10,01,09,16,10.20
2008,10,01,09,17,10.20
2008,10,01,09,18,10.20
2008,10,01,09,19,10.20
2008,10,01,09,20,10.30
2008,10,01,09,21,10.30
2008,10,01,09,22,10.30
2008,10,01,09,23,10.40
2008,10,01,09,24,10.40
2008,10,01,09,25,10.40
2008,10,01,09,26,10.50
2008,10,01,09,27,10.50
2008,10,01,09,28,10.50
2008,10,01,09,29,10.60
2008,10,01,09,30,10.60
2008,10,01,09,31,10.70
2008,10,01,09,32,10.70
2008,10,01,09,33,10.80
2008,10,01,09,34,10.80
2008,10,01,09,35,10.80
2008,10,01,09,36,10.90
2008,10,01,09,37,10.90
2008,10,01,09,38,11.00
2008,10,01,09,39,11.00
2008,10,01,09,40,11.10
2008,10,01,09,41,11.10
2008,10,01,09,42,11.10
2008,10,01,09,43,11.20
2008,10,01,09,44,11.20
2008,10,01,09,45,11.30
2008,10,01,09,46,11.30
2008,10,01,09,47,11.40
2008,10,01,09,48,11.40
2008,10,01,09,49,11.50
2008,10,01,09,50,11.50
2008,10,01,09,51,11.60
2008,10,01,09,52,11.60
2008,10,01,09,53,11.60
2008,10,01,09,54,11.70
2008,10,01,09,55,11.70
2008,10,01,09,56,11.80
2008,10,01,09,57,11.80
2008,10,01,09,58,11.90
2008,10,01,09,59,11.90
2008,10,01,10,00,12.00
2008,10,01,10,01,12.10
2008,10,01,10,02,12.20
2008,10,01,10,03,12.20
2008,10,01,10,04,12.30
2008,10,01,10,05,12.30
2008,10,01,10,06,12.40
2008,10,01,10,07,12.50
2008,10,01,10,08,12.60
2008,10,01,10,09,12.60
2008,10,01,10,10,12.70
2008,10,01,10,11,12.70
2008,10,01,10,12,12.80
2008,10,01,10,13,12.80
2008,10,01,10,14,12.90
2008,10,01,10,15,12.90
2008,10,01,10,16,13.00
2008,10,01,10,17,13.00
2008,10,01,10,18,13.10
2008,10,01,10,19,13.20
2008,10,01,10,20,13.20
2008,10,01,10,21,13.30
2008,10,01,10,22,13.30
2008,10,01,10,23,13.40
2008,10,01,10,24,13.50
2008,10,01,10,25,13.50
2008,10,01,10,26,13.60
2008,10,01,10,27,13.60
2008,10,01,10,28,13.70
2008,10,01,10,29,13.70
2008,10,01,10,30,13.80
2008,10,01,10,31,13.80
2008,10,01,10,32,13.80
2008,10,01,10,33,13.90
2008,10,01,10,34,14.00
2008,10,01,10,35,14.00
2008,10,01,10,36,14.10
2008,10,01,10,37,14.20
2008,10,01,10,38,14.20
2008,10,01,10,39,14.30
2008,10,01,10,40,14.40
2008,10,01,10,41,14.40
2008,10,01,10,42,14.50
2008,10,01,10,43,14.50
2008,10,01,10,44,14.60
2008,10,01,10,45,14.70
2008,10,01,10,46,14.70
2008,10,01,10,47,14.70
2008,10,01,10,48,14.80
2008,10,01,10,49,14.90
2008,10,01,10,50,15.00
2008,10,01,10,51,15.00
2008,10,01,10,52,15.00
2008,10,01,10,53,15.00
2008,10,01,10,54,15.00
2008,10,01,10,55,15.10
2008,10,01,10,56,15.20
2008,10,01,10,57,15.20
2008,10,01,10,58,15.30
2008,10,01,10,59,15.30
2008,10,01,11,00,15.40
2008,10,01,11,01,15.40
2008,10,01,11,02,15.50
2008,10,01,11,03,15.50
2008,10,01,11,04,15.60
2008,10,01,11,05,15.70
2008,10,01,11,06,15.70
2008,10,01,11,07,15.70
2008,10,01,11,08,15.80
2008,10,01,11,09,15.80
2008,10,01,11,10,15.90
2008,10,01,11,11,16.00
2008,10,01,11,12,16.00
2008,10,01,11,13,16.10
2008,10,01,11,14,16.10
2008,10,01,11,15,16.20
2008,10,01,11,16,16.30
2008,10,01,11,17,16.40
2008,10,01,11,18,16.50
2008,10,01,11,19,16.60
2008,10,01,11,20,16.70
2008,10,01,11,21,16.80
2008,10,01,11,22,17.00
2008,10,01,11,23,17.10
2008,10,01,11,24,17.20
2008,10,01,11,25,17.30
2008,10,01,11,26,17.40
2008,10,01,11,27,17.40
2008,10,01,11,28,17.50
2008,10,01,11,29,17.60
2008,10,01,11,30,17.70
2008,10,01,11,31,17.80
2008,10,01,11,32,17.80
2008,10,01,11,33,17.90
2008,10,01,11,34,17.90
2008,10,01,11,35,18.00
2008,10,01,11,36,18.00
2008,10,01,11,37,18.10
2008,10,01,11,38,18.10
2008,10,01,11,39,18.20
2008,10,01,11,40,18.20
2008,10,01,11,41,18.30
2008,10,01,11,42,18.30
2008,10,01,11,43,18.40
2008,10,01,11,44,18.50
2008,10,01,11,45,18.60
2008,10,01,11,46,18.60
2008,10,01,11,47,18.70
2008,10,01,11,48,18.80
2008,10,01,11,49,18.80
2008,10,01,11,50,18.80
2008,10,01,11,51,18.90
2008,10,01,11,52,18.90
2008,10,01,11,53,18.90
2008,10,01,11,54,19.00
2008,10,01,11,55,19.10
2008,10,01,11,56,19.10
2008,10,01,11,57,19.20
2008,10,01,11,58,19.20
2008,10,01,11,59,19.20
2008,10,01,12,00,19.30
2008,10,01,12,01,19.30
2008,10,01,12,02,19.30
2008,10,01,12,03,19.40
2008,10,01,12,04,19.40
2008,10,01,12,05,19.50
2008,10,01,12,06,19.50
2008,10,01,12,07,19.60
2008,10,01,12,08,19.60
2008,10,01,12,09,19.70
2008,10,01,12,10,19.80
2008,10,01,12,11,19.80
2008,10,01,12,12,19.80
2008,10,01,12,13,19.90
2008,10,01,12,14,19.90
2008,10,01,12,15,20.00
2008,10,01,12,16,20.00
2008,10,01,12,17,20.00
2008,10,01,12,18,20.10
2008,10,01,12,19,20.10
2008,10,01,12,20,20.20
2008,10,01,12,21,20.20
2008,10,01,12,22,20.30
2008,10,01,12,23,20.30
2008,10,01,12,24,20.30
2008,10,01,12,25,20.40
2008,10,01,12,26,20.40
2008,10,01,12,27,20.40
2008,10,01,12,28,20.50
2008,10,01,12,29,20.50
2008,10,01,12,30,20.50
2008,10,01,12,31,20.50
2008,10,01,12,32,20.60
2008,10,01,12,33,20.60
2008,10,01,12,34,20.60
2008,10,01,12,35,20.60
2008,10,01,12,36,20.60
2008,10,01,12,37,20.60
2008,10,01,12,38,20.60
2008,10,01,12,39,20.50
2008,10,01,12,40,20.50
2008,10,01,12,41,20.50
2008,10,01,12,42,20.50
2008,10,01,12,43,20.50
2008,10,01,12,44,20.50
2008,10,01,12,45,20.50
2008,10,01,12,46,20.50
2008,10,01,12,47,20.50
2008,10,01,12,48,20.50
2008,10,01,12,49,20.50
2008,10,01,12,50,20.50
2008,10,01,12,51,20.50
2008,10,01,12,52,20.50
2008,10,01,12,53,20.50
2008,10,01,12,54,20.50
2008,10,01,12,55,20.50
2008,10,01,12,56,20.50
2008,10,01,12,57,20.50
2008,10,01,12,58,20.50
2008,10,01,12,59,20.60
2008,10,01,13,00,20.60
2008,10,01,13,01,20.60
2008,10,01,13,02,20.60
2008,10,01,13,03,20.60
2008,10,01,13,04,20.60
2008,10,01,13,05,20.60
2008,10,01,13,06,20.60
2008,10,01,13,07,20.60
2008,10,01,13,08,20.60
2008,10,01,13,09,20.70
2008,10,01,13,10,20.70
2008,10,01,13,11,20.70
2008,10,01,13,12,20.70
2008,10,01,13,13,20.70
2008,10,01,13,14,20.70
2008,10,01,13,15,20.70
2008,10,01,13,16,20.70
2008,10,01,13,17,20.80
2008,10,01,13,18,20.80
2008,10,01,13,19,20.80
2008,10,01,13,20,20.80
2008,10,01,13,21,20.80
2008,10,01,13,22,20.90
2008,10,01,13,23,20.90
2008,10,01,13,24,20.90
2008,10,01,13,25,21.00
2008,10,01,13,26,21.00
2008,10,01,13,27,21.00
2008,10,01,13,28,21.10
2008,10,01,13,29,21.10
2008,10,01,13,30,21.10
2008,10,01,13,31,21.10
2008,10,01,13,32,21.10
2008,10,01,13,33,21.10
2008,10,01,13,34,21.10
2008,10,01,13,35,21.10
2008,10,01,13,36,21.10
2008,10,01,13,37,21.10
2008,10,01,13,38,21.10
2008,10,01,13,39,21.10
2008,10,01,13,40,21.10
2008,10,01,13,41,21.10
2008,10,01,13,42,21.10
2008,10,01,13,43,21.10
2008,10,01,13,44,21.10
2008,10,01,13,45,21.10
2008,10,01,13,46,21.10
2008,10,01,13,47,21.10
2008,10,01,13,48,21.10
2008,10,01,13,49,21.10
2008,10,01,13,50,21.00
2008,10,01,13,51,21.00
2008,10,01,13,52,21.00
2008,10,01,13,53,21.00
2008,10,01,13,54,20.90
2008,10,01,13,55,21.00
2008,10,01,13,56,21.00
2008,10,01,13,57,21.00
2008,10,01,13,58,21.00
2008,10,01,13,59,21.00
2008,10,01,14,00,21.00
2008,10,01,14,01,21.00
2008,10,01,14,02,21.00
2008,10,01,14,03,21.10
2008,10,01,14,04,21.10
2008,10,01,14,05,21.10
2008,10,01,14,06,21.10
2008,10,01,14,07,21.20
2008,10,01,14,08,21.20
2008,10,01,14,09,21.20
2008,10,01,14,10,21.20
2008,10,01,14,11,21.30
2008,10,01,14,12,21.30
2008,10,01,14,13,21.30
2008,10,01,14,14,21.30
2008,10,01,14,15,21.30
2008,10,01,14,16,21.40
2008,10,01,14,17,21.40
2008,10,01,14,18,21.40
2008,10,01,14,19,21.40
2008,10,01,14,20,21.40
2008,10,01,14,21,21.40
2008,10,01,14,22,21.40
2008,10,01,14,23,21.40
2008,10,01,14,24,21.40
2008,10,01,14,25,21.40
2008,10,01,14,26,21.50
2008,10,01,14,27,21.50
2008,10,01,14,28,21.50
2008,10,01,14,29,21.60
2008,10,01,14,30,21.60
2008,10,01,14,31,21.60
2008,10,01,14,32,21.60
2008,10,01,14,33,21.70
2008,10,01,14,34,21.70
2008,10,01,14,35,21.70
2008,10,01,14,36,21.80
2008,10,01,14,37,21.70
2008,10,01,14,38,21.70
2008,10,01,14,39,21.70
2008,10,01,14,40,21.60
2008,10,01,14,41,21.60
2008,10,01,14,42,21.50
2008,10,01,14,43,21.40
2008,10,01,14,44,21.40
2008,10,01,14,45,21.30
2008,10,01,14,46,21.30
2008,10,01,14,47,21.20
2008,10,01,14,48,21.20
2008,10,01,14,49,21.10
2008,10,01,14,50,21.10
2008,10,01,14,51,21.00
2008,10,01,14,52,21.00
2008,10,01,14,53,20.90
2008,10,01,14,54,20.90
2008,10,01,14,55,20.80
2008,10,01,14,56,20.80
2008,10,01,14,57,20.70
2008,10,01,14,58,20.60
2008,10,01,14,59,20.60
2008,10,01,15,00,20.60
2008,10,01,15,01,20.50
2008,10,01,15,02,20.50
2008,10,01,15,03,20.40
2008,10,01,15,04,20.40
2008,10,01,15,05,20.30
2008,10,01,15,06,20.30
2008,10,01,15,07,20.20
2008,10,01,15,08,20.20
2008,10,01,15,09,20.20
2008,10,01,15,10,20.10
2008,10,01,15,11,20.10
2008,10,01,15,12,20.10
2008,10,01,15,13,20.00
2008,10,01,15,14,20.00
2008,10,01,15,15,20.00
2008,10,01,15,16,19.90
2008,10,01,15,17,19.90
2008,10,01,15,18,19.80
2008,10,01,15,19,19.80
2008,10,01,15,20,19.70
2008,10,01,15,21,19.70
2008,10,01,15,22,19.60
2008,10,01,15,23,19.60
2008,10,01,15,24,19.50
2008,10,01,15,25,19.50
2008,10,01,15,26,19.50
2008,10,01,15,27,19.40
2008,10,01,15,28,19.40
2008,10,01,15,29,19.40
2008,10,01,15,30,19.40
2008,10,01,15,31,19.40
2008,10,01,15,32,19.40
2008,10,01,15,33,19.40
2008,10,01,15,34,19.40
2008,10,01,15,35,19.40
2008,10,01,15,36,19.40
2008,10,01,15,37,19.40
2008,10,01,15,38,19.40
2008,10,01,15,39,19.40
2008,10,01,15,40,19.40
2008,10,01,15,41,19.40
2008,10,01,15,42,19.40
2008,10,01,15,43,19.40
2008,10,01,15,44,19.40
2008,10,01,15,45,19.40
2008,10,01,15,46,19.40
2008,10,01,15,47,19.40
2008,10,01,15,48,19.30
2008,10,01,15,49,19.30
2008,10,01,15,50,19.30
2008,10,01,15,51,19.30
2008,10,01,15,52,19.30
2008,10,01,15,53,19.20
2008,10,01,15,54,19.20
2008,10,01,15,55,19.20
2008,10,01,15,56,19.20
2008,10,01,15,57,19.10
2008,10,01,15,58,19.10
2008,10,01,15,59,19.10
2008,10,01,16,00,19.00
2008,10,01,16,01,19.00
2008,10,01,16,02,19.00
2008,10,01,16,03,18.90
2008,10,01,16,04,18.90
2008,10,01,16,05,18.90
2008,10,01,16,06,18.80
2008,10,01,16,07,18.80
2008,10,01,16,08,18.80
2008,10,01,16,09,18.80
2008,10,01,16,10,18.70
2008,10,01,16,11,18.70
2008,10,01,16,12,18.70
2008,10,01,16,13,18.70
2008,10,01,16,14,18.70
2008,10,01,16,15,18.70
2008,10,01,16,16,18.70
2008,10,01,16,17,18.70
2008,10,01,16,18,18.70
2008,10,01,16,19,18.70
2008,10,01,16,20,18.70
2008,10,01,16,21,18.60
2008,10,01,16,22,18.60
2008,10,01,16,23,18.60
2008,10,01,16,24,18.60
2008,10,01,16,25,18.60
2008,10,01,16,26,18.60
2008,10,01,16,27,18.60
2008,10,01,16,28,18.70
2008,10,01,16,29,18.60
2008,10,01,16,30,18.60
2008,10,01,16,31,18.60
2008,10,01,16,32,18.60
2008,10,01,16,33,18.60
2008,10,01,16,34,18.60
2008,10,01,16,35,18.60
2008,10,01,16,36,18.60
2008,10,01,16,37,18.60
2008,10,01,16,38,18.60
2008,10,01,16,39,18.60
2008,10,01,16,40,18.50
2008,10,01,16,41,18.50
2008,10,01,16,42,18.40
2008,10,01,16,43,18.40
2008,10,01,16,44,18.40
2008,10,01,16,45,18.30
2008,10,01,16,46,18.30
2008,10,01,16,47,18.30
2008,10,01,16,48,18.20
2008,10,01,16,49,18.20
2008,10,01,16,50,18.20
2008,10,01,16,51,18.20
2008,10,01,16,52,18.20
2008,10,01,16,53,18.20
2008,10,01,16,54,18.10
2008,10,01,16,55,18.10
2008,10,01,16,56,18.10
2008,10,01,16,57,18.00
2008,10,01,16,58,18.00
2008,10,01,16,59,18.00
2008,10,01,17,00,17.90
2008,10,01,17,01,17.90
2008,10,01,17,02,17.90
2008,10,01,17,03,17.90
2008,10,01,17,04,17.90
2008,10,01,17,05,17.80
2008,10,01,17,06,17.80
2008,10,01,17,07,17.80
2008,10,01,17,08,17.80
2008,10,01,17,09,17.80
2008,10,01,17,10,17.80
2008,10,01,17,11,17.80
2008,10,01,17,12,17.80
2008,10,01,17,13,17.80
2008,10,01,17,14,17.80
2008,10,01,17,15,17.80
2008,10,01,17,16,17.80
2008,10,01,17,17,17.80
2008,10,01,17,18,17.70
2008,10,01,17,19,17.70
2008,10,01,17,20,17.70
2008,10,01,17,21,17.70
2008,10,01,17,22,17.70
2008,10,01,17,23,17.70
2008,10,01,17,24,17.60
2008,10,01,17,25,17.60
2008,10,01,17,26,17.60
2008,10,01,17,27,17.60
2008,10,01,17,28,17.60
2008,10,01,17,29,17.60
2008,10,01,17,30,17.50
2008,10,01,17,31,17.50